Location: Oberwangen
(47.4286°N, 8.9679°E)
Time: 23:45:12
(UTC+00:00)

USA 306 - Pass Details

Date: 20 June 2021
Orbit: 566 x 573 km, 54.0° (Epoch: 16 July)

Event Time Altitude Azimuth Distance (km) Brightness Sun altitude
Exits shadow 23:55:49 21° 124° (SE) 1,308 4.5 -18.8°
Drops below altitude 10° 23:58:40 10° 82° (E) 1,872 5.7 -18.7°
Sets 00:01:20 0° 67° (ENE) 2,772 6.9 -18.7°
